User: anonymous   Login
Location: Newark
(58.8333°N, 23.5833°E)
Time: 00:37:55
(UTC+00:00)
Language:

Transit 2A - Orbit

View from above orbital plane
View from above orbital plane
View from above satellite
View from above satellite

Ground track
Ground track

The orbit data is extracted from the following two-line orbital elements,

1    45U 60007A   19316.86199680 -.00000029 +00000-0 +19620-4 0  9993
2    45 066.6949 234.2968 0248779 114.7756 247.9449 14.33655126034645
Epoch (UTC): 12 November 2019 20:41:16
Eccentricity: 0.0248779
inclination: 66.6949°
perigee height: 601 km
apogee height: 957 km
right ascension of ascending node: 234.2968°
argument of perigee: 114.7756°
revolutions per day: 14.33655126
mean anomaly at epoch: 247.9449°
orbit number at epoch: 3464

The dashed part of the orbit path shows where the satellite is in the earth's shadow,  

DLR